[[{"header":{"parameterUnit":"m.s-1","parameterCategory":2,"la1":30.2991,"la2":30.254,"lo1":-89.0895,"lo2":-89.0444,"dy":0.0017,"dx":0.0017,"nx":28,"ny":28,"refTime":"2024-07-15T09:00:00:Z","depth":"0","parameterNumber":2,"parameterNumberName":"U-component_of_CURRENTS"},"data":[0,0,0,0,0,0,0,0,0,0,0,0,0,0,0,0,0,0,0,0,0,0,0,0,0,0,0,0,0,0,0,0,0,0,0,0,0,0,0,0,0,0,0,0,0,0,0,0,0,0,0,0,0,0,0,0,0,0,-0.1095,-0.1095,0,-0.1149,-0.115,-0.115,-0.114,-0.1139,-0.1139,-0.1138,-0.1155,-0.1156,-0.1158,0,0,0,0,0,0,0,0,0,0,0,0,0,-0.1039,-0.104,-0.1094,-0.1095,-0.1096,-0.1149,-0.115,-0.115,-0.114,-0.1139,-0.1139,-0.1138,-0.1155,-0.1156,-0.1158,0,0,0,0,0,0,0,0,0,0,0,0,0,-0.1073,-0.104,-0.1094,-0.11,-0.1101,-0.1149,-0.115,-0.115,-0.1141,-0.1139,-0.1138,-0.1137,-0.1155,-0.1156,-0.1158,-0.119,0,0,-0.1163,-0.1164,0,0,0,0,0,0,0,0,-0.1071,-0.1074,-0.1098,-0.1099,-0.1101,-0.1139,-0.1137,-0.1163,-0.1141,-0.1123,-0.1138,-0.1137,-0.1149,-0.1151,-0.1161,-0.1191,-0.1192,-0.1163,-0.1164,-0.1165,-0.1166,0,0,0,0,0,0,0,-0.1068,-0.1072,-0.1113,-0.1099,-0.1101,-0.112,-0.1122,-0.1142,-0.1139,-0.1124,-0.1124,-0.1135,-0.1149,-0.1159,-0.1161,-0.1192,-0.1163,-0.1165,-0.1166,-0.1166,-0.1258,-0.126,0,0,0,0,0,0,-0.1065,-0.107,-0.1112,-0.1115,-0.1086,-0.1121,-0.1124,-0.1126,-0.1139,-0.1141,-0.1136,-0.1134,-0.1157,-0.1159,-0.1161,-0.1198,-0.1165,-0.1167,-0.1168,-0.1257,-0.1259,-0.126,0,0,0,0,0,0,-0.1064,-0.1068,-0.111,-0.1097,-0.1103,-0.1123,-0.1125,-0.1128,-0.1135,-0.1149,-0.1149,-0.1141,-0.1156,-0.1159,-0.1188,-0.1199,-0.1167,-0.1169,-0.1255,-0.1258,-0.126,-0.1274,0,0,0,0,0,0,-0.1062,-0.1067,-0.1064,-0.1096,-0.1104,-0.1138,-0.1127,-0.1129,-0.1145,-0.1143,-0.1154,-0.1154,-0.1155,-0.1186,-0.119,-0.1201,-0.117,-0.1254,-0.1256,-0.1259,-0.1271,-0.1276,-0.128,0,0,0,0,0,-0.1059,-0.106,-0.1063,-0.1069,-0.11,-0.1139,-0.1145,-0.1154,-0.1146,-0.1155,-0.1168,-0.1154,-0.1205,-0.1189,-0.1193,-0.1204,-0.1252,-0.1256,-0.1259,-0.1269,-0.1275,-0.128,0,0,0,0,0,0,-0.1044,-0.1061,-0.1064,-0.1072,-0.1104,-0.1138,-0.1147,-0.1157,-0.1175,-0.1169,-0.1176,-0.1179,-0.121,-0.1212,-0.1193,-0.1241,-0.1225,-0.123,-0.1232,-0.1238,-0.1242,-0.1236,-0.1172,0,0,0,0,0,-0.1039,-0.1035,-0.107,-0.1078,-0.1093,-0.1121,-0.1136,-0.1146,-0.1169,-0.1175,-0.1188,-0.1203,-0.123,-0.1235,-0.1259,-0.1284,-0.1282,-0.1295,-0.1299,-0.1302,-0.1303,-0.1303,-0.1306,-0.1271,-0.1271,-0.1271,0,0,-0.1039,-0.1046,-0.1047,-0.1074,-0.1095,-0.1123,-0.1126,-0.1151,-0.1176,-0.1176,-0.1206,-0.1223,-0.1244,-0.1275,-0.1288,-0.1273,-0.1318,-0.1307,-0.1309,-0.1308,-0.1306,-0.1309,-0.1312,-0.1273,-0.1273,-0.1272,0,0,-0.1041,-0.1043,-0.1044,-0.1068,-0.1099,-0.1122,-0.1131,-0.1168,-0.1182,-0.1221,-0.123,-0.1255,-0.129,-0.1307,-0.1321,-0.1365,-0.1347,-0.1369,-0.1376,-0.1376,-0.1378,-0.138,-0.1399,-0.1403,-0.1362,-0.1362,-0.1362,0,-0.1045,-0.1045,-0.1056,-0.1071,-0.109,-0.1122,-0.1144,-0.1174,-0.1217,-0.1236,-0.123,-0.1292,-0.1307,-0.1347,-0.1363,-0.1373,-0.1372,-0.135,-0.1379,-0.138,-0.1382,-0.1401,-0.1405,-0.1363,-0.1363,-0.1363,-0.1363,0,-0.1052,-0.1056,-0.1064,-0.1085,-0.1111,-0.1135,-0.118,-0.1208,-0.1229,-0.1258,-0.1304,-0.1329,-0.1358,-0.1372,-0.1381,-0.1407,-0.1404,-0.1388,-0.1358,-0.1386,-0.1405,-0.1409,-0.1365,-0.1364,-0.1364,-0.1364,0,0,-0.1054,-0.1065,-0.1068,-0.1075,-0.1116,-0.1141,-0.1186,-0.1238,-0.1264,-0.1304,-0.1333,-0.1386,-0.1391,-0.1407,-0.1418,-0.1419,-0.144,-0.1404,-0.1404,-0.1412,-0.1449,-0.1432,-0.1434,-0.1416,-0.1416,-0.1417,-0.1464,0,-0.106,-0.1075,-0.1082,-0.111,-0.1128,-0.1162,-0.12,-0.1249,-0.1289,-0.1328,-0.1362,-0.1395,-0.1407,-0.1411,-0.1421,-0.1433,-0.1446,-0.143,-0.1432,-0.1433,-0.1403,-0.1436,-0.1422,-0.1461,-0.1467,-0.1467,-0.1468,0,-0.1066,-0.1072,-0.1092,-0.1113,-0.1124,-0.1147,-0.1202,-0.1238,-0.1305,-0.1331,-0.1369,-0.1396,-0.143,-0.1419,-0.1455,-0.1439,-0.1451,-0.1457,-0.1458,-0.1436,-0.1421,-0.1433,-0.1466,-0.1403,-0.1473,-0.1472,-0.1472,0,-0.1058,-0.1079,-0.1088,-0.11,-0.1136,-0.115,-0.1173,-0.1237,-0.1265,-0.1325,-0.1342,-0.1394,-0.1406,-0.1426,-0.146,-0.1449,-0.1489,-0.1472,-0.1479,-0.1479,-0.1465,-0.1463,-0.1425,-0.1497,-0.1497,-0.1497,-0.1497,0,-0.1057,-0.1064,-0.1081,-0.1087,-0.1105,-0.1132,-0.1159,-0.1197,-0.124,-0.127,-0.1329,-0.1358,-0.1402,-0.1438,-0.1462,-0.1487,-0.1494,-0.1491,-0.1487,-0.1473,-0.1471,-0.1413,-0.1357,-0.1499,-0.1498,-0.1498,-0.1498,0,-0.1041,-0.1055,-0.1064,-0.1089,-0.1098,-0.1108,-0.1134,-0.1153,-0.1198,-0.1232,-0.1245,-0.1326,-0.1376,-0.1431,-0.1474,-0.1484,-0.1476,-0.152,-0.1514,-0.1507,-0.1433,-0.1379,-0.1394,-0.1344,-0.1527,-0.1527,-0.1527,0,-0.1031,-0.1033,-0.1054,-0.1058,-0.1063,-0.108,-0.1091,-0.113,-0.1142,-0.1216,-0.1222,-0.1296,-0.1355,-0.1428,-0.1477,-0.1528,-0.1478,-0.1518,-0.1491,-0.1432,-0.1369,-0.1389,-0.1345,-0.1496,-0.1495,-0.1495,-0.1495,0,-0.1007,-0.1012,-0.1014,-0.102,-0.1026,-0.1036,-0.1045,-0.1048,-0.1095,-0.1138,-0.12,-0.1256,-0.1359,-0.1433,-0.1496,-0.1505,-0.1449,-0.151,-0.1446,-0.1338,-0.1361,-0.1308,-0.1474,-0.1492,-0.1492,-0.1492,-0.1492,-0.1492,-0.0979,-0.0972,-0.097,-0.0967,-0.0981,-0.0976,-0.0956,-0.0983,-0.1007,-0.105,-0.1149,-0.1217,-0.1355,-0.1458,-0.1459,-0.1446,-0.1437,-0.1398,-0.1342,-0.1374,-0.1302,-0.1468,-0.1473,-0.1473,-0.1473,-0.1473,-0.1473,0,-0.0949,-0.0931,-0.0919,-0.0913,-0.0905,-0.0929,-0.0912,-0.0888,-0.0905,-0.0977,-0.1055,-0.1216,-0.1289,-0.1365,-0.1432,-0.132,-0.1304,-0.1224,-0.1233,-0.1196,-0.1344,-0.1316,-0.1289,-0.1289,-0.1289,-0.1289,-0.1289,-0.1289,-0.0931,-0.0901,-0.0882,-0.0837,-0.0836,-0.079,-0.0768,-0.0769,-0.0781,-0.0859,-0.0959,-0.1069,-0.1207,-0.1313,-0.1238,-0.1168,-0.1066,-0.1053,-0.0991,-0.1064,-0.1076,-0.1088,-0.105,-0.0967,-0.0966,-0.0886,-0.0884,-0.0883]},{"header":{"parameterUnit":"m.s-1","parameterCategory":2,"la1":30.2991,"la2":30.254,"lo1":-89.0895,"lo2":-89.0444,"dy":0.0017,"dx":0.0017,"nx":28,"ny":28,"refTime":"2024-07-15T09:00:00:Z","depth":"0","parameterNumber":3,"parameterNumberName":"V-component_of_CURRENTS"},"data":[0,0,0,0,0,0,0,0,0,0,0,0,0,0,0,0,0,0,0,0,0,0,0,0,0,0,0,0,0,0,0,0,0,0,0,0,0,0,0,0,0,0,0,0,0,0,0,0,0,0,0,0,0,0,0,0,0,0,-0.1268,-0.1269,0,-0.125,-0.1249,-0.1249,-0.1222,-0.1222,-0.1222,-0.1222,-0.1157,-0.1155,-0.1154,0,0,0,0,0,0,0,0,0,0,0,0,0,-0.1214,-0.1215,-0.1268,-0.1269,-0.1269,-0.125,-0.1249,-0.1249,-0.1222,-0.1222,-0.1222,-0.1222,-0.1157,-0.1155,-0.1153,0,0,0,0,0,0,0,0,0,0,0,0,0,-0.1218,-0.1216,-0.1268,-0.1255,-0.1254,-0.125,-0.1249,-0.1249,-0.1223,-0.1222,-0.1222,-0.1222,-0.1158,-0.1155,-0.1153,-0.1144,0,0,-0.1146,-0.1145,0,0,0,0,0,0,0,0,-0.1218,-0.122,-0.1257,-0.1256,-0.1255,-0.1241,-0.1206,-0.1212,-0.1223,-0.1231,-0.1222,-0.1222,-0.1183,-0.1178,-0.1172,-0.1141,-0.1138,-0.1146,-0.1144,-0.1143,-0.1143,0,0,0,0,0,0,0,-0.1218,-0.122,-0.1258,-0.1257,-0.1256,-0.1227,-0.1228,-0.1207,-0.1206,-0.1231,-0.1229,-0.1232,-0.1181,-0.1174,-0.117,-0.1137,-0.1146,-0.1144,-0.1142,-0.1141,-0.109,-0.109,0,0,0,0,0,0,-0.123,-0.122,-0.1259,-0.1258,-0.1239,-0.1229,-0.123,-0.1243,-0.1207,-0.1202,-0.1232,-0.1231,-0.1178,-0.1173,-0.1168,-0.1155,-0.1143,-0.1141,-0.114,-0.109,-0.109,-0.109,0,0,0,0,0,0,-0.1229,-0.1234,-0.126,-0.124,-0.1242,-0.1231,-0.1246,-0.1243,-0.1234,-0.1209,-0.1203,-0.1227,-0.1178,-0.1171,-0.1159,-0.1152,-0.114,-0.1138,-0.109,-0.109,-0.109,-0.113,0,0,0,0,0,0,-0.1228,-0.1234,-0.124,-0.1242,-0.1243,-0.1257,-0.1247,-0.1243,-0.1238,-0.1236,-0.1203,-0.1196,-0.1177,-0.1162,-0.1156,-0.1149,-0.1136,-0.109,-0.109,-0.109,-0.1128,-0.1131,-0.1133,0,0,0,0,0,-0.1226,-0.1234,-0.1241,-0.1245,-0.1255,-0.1258,-0.1255,-0.1244,-0.1238,-0.1235,-0.1221,-0.1197,-0.1158,-0.1161,-0.1154,-0.1145,-0.109,-0.109,-0.109,-0.1127,-0.113,-0.1133,0,0,0,0,0,0,-0.1207,-0.1233,-0.1239,-0.1254,-0.1258,-0.1254,-0.125,-0.1246,-0.1232,-0.1229,-0.1204,-0.1197,-0.1182,-0.116,-0.1164,-0.113,-0.1117,-0.1116,-0.1148,-0.1151,-0.1153,-0.1158,-0.1134,0,0,0,0,0,-0.121,-0.1224,-0.1242,-0.1249,-0.1257,-0.1255,-0.1252,-0.1248,-0.1242,-0.1235,-0.1219,-0.1197,-0.1176,-0.1163,-0.1143,-0.1127,-0.1112,-0.1115,-0.1117,-0.112,-0.1118,-0.1112,-0.1115,-0.109,-0.109,-0.109,0,0,-0.1203,-0.1219,-0.1225,-0.1246,-0.1249,-0.1258,-0.1251,-0.1252,-0.1253,-0.123,-0.1224,-0.1207,-0.1175,-0.1161,-0.115,-0.1142,-0.1116,-0.112,-0.1122,-0.1119,-0.1113,-0.1115,-0.1117,-0.109,-0.109,-0.109,0,0,-0.1196,-0.1215,-0.1226,-0.1236,-0.1249,-0.1253,-0.1256,-0.1262,-0.1258,-0.1254,-0.1238,-0.1227,-0.1192,-0.1178,-0.1162,-0.1166,-0.1133,-0.1149,-0.1162,-0.1156,-0.1159,-0.116,-0.1137,-0.1137,-0.1147,-0.1147,-0.1147,0,-0.1184,-0.1208,-0.1225,-0.1239,-0.1246,-0.1254,-0.1263,-0.1264,-0.1262,-0.1259,-0.1254,-0.122,-0.1201,-0.1182,-0.1184,-0.1172,-0.1156,-0.1155,-0.1161,-0.1162,-0.1163,-0.1139,-0.1138,-0.1149,-0.1149,-0.1149,-0.1149,0,-0.1193,-0.1208,-0.1214,-0.1241,-0.1249,-0.1257,-0.1272,-0.1276,-0.1274,-0.1271,-0.1259,-0.1244,-0.122,-0.1212,-0.1197,-0.119,-0.1171,-0.117,-0.1157,-0.1169,-0.1142,-0.114,-0.1152,-0.1151,-0.1151,-0.115,0,0,-0.1172,-0.1213,-0.1214,-0.1228,-0.1252,-0.126,-0.127,-0.1279,-0.128,-0.1278,-0.1275,-0.1253,-0.1245,-0.1228,-0.1212,-0.1209,-0.1205,-0.1192,-0.1191,-0.1174,-0.1177,-0.1219,-0.122,-0.1205,-0.1205,-0.1205,-0.1153,0,-0.117,-0.12,-0.1219,-0.1236,-0.1251,-0.1267,-0.1275,-0.1281,-0.1282,-0.1284,-0.1272,-0.1259,-0.125,-0.1239,-0.1237,-0.1217,-0.1203,-0.1218,-0.1163,-0.116,-0.1202,-0.1221,-0.1244,-0.1205,-0.1151,-0.1151,-0.1151,0,-0.1168,-0.1191,-0.1212,-0.124,-0.1248,-0.1259,-0.1274,-0.1282,-0.1286,-0.1285,-0.1278,-0.1267,-0.126,-0.1252,-0.1226,-0.1235,-0.1204,-0.1189,-0.1187,-0.1211,-0.12,-0.1185,-0.1204,-0.0953,-0.1147,-0.1148,-0.1148,0,-0.1143,-0.118,-0.1198,-0.1209,-0.1244,-0.1252,-0.1267,-0.1277,-0.1285,-0.1285,-0.1287,-0.1274,-0.1271,-0.1245,-0.1217,-0.1217,-0.1187,-0.1182,-0.1183,-0.1184,-0.1186,-0.1189,-0.0964,-0.1152,-0.1152,-0.1153,-0.1153,0,-0.113,-0.1139,-0.1191,-0.1199,-0.1218,-0.1242,-0.1257,-0.1266,-0.1282,-0.1299,-0.1286,-0.1301,-0.1272,-0.1254,-0.1218,-0.1204,-0.1185,-0.119,-0.1183,-0.1201,-0.1205,-0.0974,-0.0771,-0.1151,-0.1151,-0.1151,-0.1152,0,-0.1087,-0.1123,-0.1144,-0.1191,-0.1205,-0.1216,-0.1259,-0.1274,-0.1284,-0.1307,-0.1307,-0.1316,-0.1309,-0.1268,-0.1228,-0.1216,-0.1059,-0.1174,-0.1193,-0.1192,-0.0996,-0.0795,-0.0605,-0.0502,-0.1182,-0.1183,-0.1183,0,-0.1067,-0.1078,-0.1134,-0.1156,-0.1177,-0.1207,-0.1233,-0.1265,-0.1294,-0.1328,-0.1348,-0.1342,-0.1352,-0.1312,-0.1309,-0.126,-0.1034,-0.1222,-0.1241,-0.0987,-0.0756,-0.0676,-0.0596,-0.1241,-0.1242,-0.1243,-0.1244,0,-0.1028,-0.1051,-0.1076,-0.1132,-0.1168,-0.1208,-0.1256,-0.1285,-0.1333,-0.1366,-0.1415,-0.1419,-0.1414,-0.1419,-0.1362,-0.1319,-0.1023,-0.1243,-0.0968,-0.0774,-0.0679,-0.0579,-0.1245,-0.1253,-0.1252,-0.1251,-0.1251,-0.125,-0.0997,-0.1011,-0.1062,-0.1111,-0.1153,-0.1214,-0.1253,-0.1326,-0.1387,-0.1468,-0.1474,-0.1541,-0.1479,-0.1447,-0.1346,-0.1132,-0.1066,-0.1018,-0.0792,-0.0737,-0.0639,-0.1327,-0.1343,-0.1342,-0.1342,-0.1342,-0.1342,0,-0.0971,-0.1007,-0.1048,-0.1116,-0.1162,-0.1189,-0.1273,-0.133,-0.1425,-0.154,-0.1594,-0.1647,-0.1482,-0.133,-0.105,-0.073,-0.0666,-0.0487,-0.032,-0.0261,-0.0871,-0.0877,-0.0806,-0.0806,-0.0806,-0.0807,-0.0807,-0.0807,-0.0961,-0.1003,-0.1038,-0.1117,-0.1156,-0.122,-0.1267,-0.1372,-0.1481,-0.1647,-0.1773,-0.1834,-0.1388,-0.0639,-0.0133,-0.0072,0.0273,0.0275,0.0483,0.0156,0.0125,0.0095,0.0133,0.0414,0.0416,0.0942,0.0949,0.0954]}],[{"header":{"parameterUnit":"m.s-1","parameterCategory":2,"la1":30.2991,"la2":30.254,"lo1":-89.0895,"lo2":-89.0444,"dy":0.0017,"dx":0.0017,"nx":28,"ny":28,"refTime":"2024-07-15T09:00:00:Z","depth":"2","parameterNumber":2,"parameterNumberName":"U-component_of_CURRENTS"},"data":[0,0,0,0,0,0,0,0,0,0,0,0,0,0,0,0,0,0,0,0,0,0,0,0,0,0,0,0,0,0,0,0,0,0,0,0,0,0,0,0,0,0,0,0,0,0,0,0,0,0,0,0,0,0,0,0,0,0,-0.2824,-0.2824,0,-0.2824,-0.2824,-0.2824,-0.2814,-0.2814,-0.2814,-0.2814,-0.271,-0.2707,-0.2705,0,0,0,0,0,0,0,0,0,0,0,0,0,-0.2755,-0.2756,-0.2824,-0.2824,-0.2824,-0.2824,-0.2824,-0.2824,-0.2814,-0.2814,-0.2814,-0.2814,-0.2711,-0.2708,-0.2704,0,0,0,0,0,0,0,0,0,0,0,0,0,-0.277,-0.2756,-0.2824,-0.2822,-0.2822,-0.2825,-0.2824,-0.2824,-0.2814,-0.2814,-0.2814,-0.2814,-0.2712,-0.2708,-0.2704,-0.2678,0,0,-0.2691,-0.2689,0,0,0,0,0,0,0,0,-0.2769,-0.2772,-0.2822,-0.2822,-0.2822,-0.2822,-0.2762,-0.2771,-0.2814,-0.2814,-0.2814,-0.2814,-0.274,-0.2733,-0.2731,-0.2674,-0.2669,-0.2691,-0.2688,-0.2687,-0.2685,0,0,0,0,0,0,0,-0.2768,-0.2772,-0.2821,-0.2822,-0.2822,-0.28,-0.2803,-0.2763,-0.2773,-0.2814,-0.2814,-0.2819,-0.2738,-0.2735,-0.2728,-0.2668,-0.2691,-0.2687,-0.2685,-0.2683,-0.2491,-0.2488,0,0,0,0,0,0,-0.2778,-0.2772,-0.2821,-0.2822,-0.2798,-0.2802,-0.2805,-0.282,-0.2775,-0.277,-0.2819,-0.2818,-0.2742,-0.2733,-0.2724,-0.2642,-0.2687,-0.2683,-0.268,-0.2493,-0.249,-0.2487,0,0,0,0,0,0,-0.2776,-0.2782,-0.2821,-0.2798,-0.2802,-0.2804,-0.282,-0.282,-0.2811,-0.2781,-0.2773,-0.281,-0.2742,-0.273,-0.2673,-0.264,-0.2681,-0.2677,-0.2496,-0.2492,-0.2489,-0.2509,0,0,0,0,0,0,-0.2774,-0.2782,-0.2783,-0.2799,-0.2804,-0.2807,-0.2821,-0.282,-0.2815,-0.2815,-0.2771,-0.2762,-0.2741,-0.268,-0.2669,-0.2635,-0.2674,-0.25,-0.2495,-0.249,-0.2512,-0.2507,-0.2502,0,0,0,0,0,-0.2772,-0.2769,-0.2784,-0.2789,-0.281,-0.2806,-0.2805,-0.2804,-0.2815,-0.2799,-0.2771,-0.2763,-0.264,-0.2675,-0.2663,-0.2627,-0.2502,-0.2496,-0.249,-0.2514,-0.2508,-0.2502,0,0,0,0,0,0,-0.2728,-0.2769,-0.2785,-0.2792,-0.2795,-0.2805,-0.2791,-0.2801,-0.2771,-0.277,-0.2743,-0.2731,-0.2662,-0.2635,-0.2674,-0.255,-0.2563,-0.2555,-0.2585,-0.2579,-0.2574,-0.2558,-0.267,0,0,0,0,0,-0.2725,-0.2736,-0.2766,-0.2764,-0.2771,-0.2783,-0.278,-0.2787,-0.2773,-0.2761,-0.2734,-0.2687,-0.2629,-0.26,-0.2548,-0.2492,-0.2463,-0.2452,-0.2447,-0.2444,-0.2417,-0.2361,-0.235,-0.2468,-0.2468,-0.2468,0,0,-0.27,-0.2728,-0.2729,-0.2755,-0.276,-0.2754,-0.2779,-0.2776,-0.2757,-0.2751,-0.2704,-0.2671,-0.2608,-0.2542,-0.2507,-0.2517,-0.2394,-0.2436,-0.2434,-0.2409,-0.2354,-0.2343,-0.2333,-0.2464,-0.2465,-0.2465,0,0,-0.266,-0.269,-0.2688,-0.2697,-0.2717,-0.2724,-0.2724,-0.2737,-0.2725,-0.2691,-0.2667,-0.2607,-0.2547,-0.2482,-0.2444,-0.2372,-0.237,-0.2364,-0.2331,-0.2278,-0.2269,-0.226,-0.2224,-0.2212,-0.2364,-0.2364,-0.2364,0,-0.2627,-0.264,-0.2678,-0.2681,-0.2679,-0.271,-0.2696,-0.2687,-0.2674,-0.2647,-0.267,-0.2548,-0.2505,-0.2395,-0.2374,-0.2359,-0.2349,-0.2373,-0.2276,-0.2266,-0.2257,-0.2222,-0.2208,-0.2364,-0.2364,-0.2364,-0.2364,0,-0.2591,-0.26,-0.2595,-0.2614,-0.2614,-0.2604,-0.2617,-0.2602,-0.2606,-0.2593,-0.2509,-0.2461,-0.2386,-0.2362,-0.2352,-0.2252,-0.2274,-0.2283,-0.2305,-0.2247,-0.2213,-0.2198,-0.2365,-0.2365,-0.2364,-0.2364,0,0,-0.2499,-0.2561,-0.2552,-0.2556,-0.2582,-0.2572,-0.2546,-0.2514,-0.2482,-0.2464,-0.2404,-0.231,-0.2306,-0.2258,-0.2235,-0.2189,-0.2126,-0.2221,-0.2218,-0.2209,-0.2035,-0.2,-0.1981,-0.2149,-0.2146,-0.2143,-0.2045,0,-0.2446,-0.2451,-0.249,-0.2459,-0.2457,-0.2485,-0.2453,-0.2432,-0.2417,-0.2369,-0.2314,-0.225,-0.226,-0.2237,-0.2188,-0.2141,-0.2087,-0.2153,-0.2068,-0.2065,-0.2061,-0.1961,-0.1806,-0.17,-0.2031,-0.2028,-0.2027,0,-0.2375,-0.2395,-0.2379,-0.2396,-0.2395,-0.2381,-0.2342,-0.2325,-0.2275,-0.2268,-0.2214,-0.2192,-0.2101,-0.2137,-0.2019,-0.2079,-0.2044,-0.2016,-0.2012,-0.1953,-0.2,-0.1803,-0.1662,-0.2003,-0.2004,-0.2006,-0.2008,0,-0.2271,-0.2298,-0.2285,-0.2291,-0.232,-0.2303,-0.2309,-0.2279,-0.2245,-0.2207,-0.2181,-0.2102,-0.2059,-0.2005,-0.1959,-0.1996,-0.185,-0.1888,-0.181,-0.1809,-0.1637,-0.1626,-0.1778,-0.1778,-0.1778,-0.1779,-0.1779,0,-0.2184,-0.2158,-0.2242,-0.2227,-0.2188,-0.2245,-0.2185,-0.2188,-0.2169,-0.2112,-0.2124,-0.206,-0.203,-0.1958,-0.1927,-0.1818,-0.1818,-0.1762,-0.1759,-0.1641,-0.1631,-0.1863,-0.1875,-0.1775,-0.1776,-0.1776,-0.1777,0,-0.2043,-0.2105,-0.2084,-0.2131,-0.2137,-0.2108,-0.2118,-0.2078,-0.21,-0.2033,-0.2022,-0.2002,-0.1932,-0.1889,-0.1795,-0.1758,-0.1671,-0.1633,-0.1509,-0.1492,-0.1678,-0.1692,-0.152,-0.1517,-0.1515,-0.1513,-0.1512,0,-0.1971,-0.1956,-0.1996,-0.1986,-0.2001,-0.1989,-0.197,-0.2015,-0.1987,-0.1981,-0.1933,-0.1883,-0.1829,-0.1697,-0.1609,-0.1517,-0.1588,-0.1324,-0.1336,-0.1626,-0.1641,-0.1658,-0.1673,-0.1124,-0.1119,-0.1115,-0.1112,0,-0.1818,-0.184,-0.1836,-0.1837,-0.1827,-0.1818,-0.1818,-0.1796,-0.1846,-0.1843,-0.1828,-0.1803,-0.1667,-0.1513,-0.1401,-0.1316,-0.1334,-0.1247,-0.1525,-0.1234,-0.1249,-0.1267,-0.1295,-0.1079,-0.1082,-0.1085,-0.1086,-0.1088,-0.1688,-0.1657,-0.1679,-0.1658,-0.1669,-0.1672,-0.1647,-0.1693,-0.17,-0.1701,-0.171,-0.1612,-0.1448,-0.1213,-0.1124,-0.1038,-0.1134,-0.105,-0.1062,-0.1078,-0.107,-0.1083,-0.088,-0.0882,-0.0884,-0.0885,-0.0887,0,-0.1525,-0.1515,-0.1501,-0.1497,-0.1487,-0.1537,-0.1551,-0.1566,-0.1603,-0.1566,-0.1576,-0.1225,-0.1096,-0.0964,-0.0806,-0.0763,-0.0749,-0.0702,-0.0695,-0.0726,-0.0754,-0.0732,-0.0451,-0.045,-0.045,-0.0449,0,0,-0.143,-0.1371,-0.1378,-0.1326,-0.1336,-0.1323,-0.1336,-0.1421,-0.1422,-0.1328,-0.1191,-0.1147,-0.0981,-0.0745,-0.0656,-0.0583,-0.0669,-0.0525,-0.0863,-0.0893,-0.0922,-0.0921,-0.0918,0,0,0,0,0]},{"header":{"parameterUnit":"m.s-1","parameterCategory":2,"la1":30.2991,"la2":30.254,"lo1":-89.0895,"lo2":-89.0444,"dy":0.0017,"dx":0.0017,"nx":28,"ny":28,"refTime":"2024-07-15T09:00:00:Z","depth":"2","parameterNumber":3,"parameterNumberName":"V-component_of_CURRENTS"},"data":[0,0,0,0,0,0,0,0,0,0,0,0,0,0,0,0,0,0,0,0,0,0,0,0,0,0,0,0,0,0,0,0,0,0,0,0,0,0,0,0,0,0,0,0,0,0,0,0,0,0,0,0,0,0,0,0,0,0,0.0803,0.0805,0,0.0937,0.0938,0.094,0.0989,0.0988,0.0988,0.0987,0.1089,0.1092,0.1095,0,0,0,0,0,0,0,0,0,0,0,0,0,0.0682,0.0683,0.0803,0.0805,0.0807,0.0936,0.0938,0.094,0.0989,0.0988,0.0988,0.0987,0.1088,0.1091,0.1095,0,0,0,0,0,0,0,0,0,0,0,0,0,0.0766,0.0684,0.0803,0.0847,0.0852,0.0936,0.0938,0.0941,0.0989,0.0988,0.0988,0.0987,0.1087,0.1091,0.1096,0.1136,0,0,0.111,0.1112,0,0,0,0,0,0,0,0,0.0761,0.0771,0.0839,0.0844,0.085,0.0946,0.0933,0.1005,0.0989,0.0936,0.0987,0.0987,0.1039,0.1047,0.1074,0.1141,0.1146,0.111,0.1113,0.1115,0.1116,0,0,0,0,0,0,0,0.0755,0.0766,0.0856,0.084,0.0847,0.0891,0.0902,0.0947,0.0988,0.0941,0.0945,0.0961,0.1041,0.1069,0.1076,0.1147,0.111,0.1114,0.1117,0.1119,0.1206,0.1205,0,0,0,0,0,0,0.0736,0.076,0.0851,0.086,0.0804,0.0894,0.0905,0.0915,0.0989,0.1,0.0961,0.0962,0.1061,0.1071,0.108,0.1077,0.1115,0.1119,0.1122,0.1206,0.1205,0.1205,0,0,0,0,0,0,0.0733,0.0743,0.0846,0.0813,0.083,0.0896,0.0907,0.0918,0.0923,0.1005,0.1015,0.0952,0.1061,0.1073,0.1103,0.1083,0.1121,0.1126,0.1207,0.1206,0.1205,0.1106,0,0,0,0,0,0,0.0728,0.074,0.0726,0.0812,0.0831,0.0863,0.0908,0.0921,0.0936,0.0938,0.1,0.1011,0.1062,0.1096,0.1108,0.109,0.1129,0.1207,0.1206,0.1205,0.111,0.1102,0.1096,0,0,0,0,0,0.0724,0.0702,0.0724,0.0735,0.0813,0.0862,0.0875,0.0921,0.0935,0.0925,0.0976,0.1008,0.1098,0.1099,0.1113,0.1097,0.1208,0.1207,0.1206,0.1113,0.1104,0.1096,0,0,0,0,0,0,0.0633,0.0709,0.0733,0.0733,0.078,0.087,0.0862,0.0903,0.0938,0.0932,0.1008,0.1022,0.1039,0.1083,0.1082,0.112,0.1156,0.1158,0.1081,0.1073,0.1065,0.1044,0.1133,0,0,0,0,0,0.061,0.0614,0.0694,0.0688,0.0705,0.078,0.08,0.0835,0.0888,0.0902,0.0952,0.1004,0.1051,0.1071,0.1116,0.1139,0.1198,0.1136,0.1129,0.1122,0.1115,0.1191,0.119,0.1202,0.1202,0.1202,0,0,0.0574,0.0614,0.0616,0.0669,0.0707,0.0729,0.0788,0.0805,0.0825,0.0908,0.0926,0.0976,0.1051,0.1077,0.1088,0.1107,0.1151,0.1121,0.1115,0.1111,0.119,0.1189,0.1188,0.1201,0.1201,0.1201,0,0,0.0512,0.0536,0.0524,0.0559,0.0609,0.0663,0.0658,0.0733,0.0758,0.0794,0.0858,0.0898,0.0964,0.1021,0.106,0.1041,0.1108,0.1042,0.0991,0.1065,0.1065,0.1065,0.1141,0.1149,0.1041,0.104,0.104,0,0.0461,0.0469,0.0524,0.0528,0.055,0.0625,0.0624,0.0668,0.0741,0.0764,0.0777,0.0892,0.0944,0.1004,0.0991,0.1024,0.1073,0.1016,0.1055,0.1057,0.1059,0.1137,0.1147,0.1036,0.1036,0.1037,0.1037,0,0.041,0.0411,0.0401,0.0439,0.0466,0.047,0.0547,0.0567,0.0607,0.0666,0.0715,0.0801,0.0866,0.0889,0.0933,0.0971,0.1004,0.1034,0.1073,0.1051,0.1135,0.1147,0.1028,0.103,0.1032,0.1033,0,0,0.0309,0.0357,0.035,0.0359,0.0419,0.0439,0.0462,0.0518,0.0538,0.06,0.064,0.0717,0.0756,0.0801,0.0866,0.0929,0.0985,0.0969,0.0975,0.1037,0.1145,0.1117,0.1129,0.1015,0.1016,0.1018,0.1198,0,0.0249,0.0237,0.0284,0.0273,0.0277,0.0351,0.0373,0.0431,0.049,0.0543,0.0637,0.0687,0.0727,0.075,0.0816,0.0951,0.1011,0.0933,0.1163,0.117,0.1142,0.1139,0.0986,0.1128,0.1211,0.1213,0.1214,0,0.0185,0.0191,0.0168,0.0209,0.0215,0.0218,0.0271,0.0303,0.0399,0.0443,0.051,0.0589,0.0687,0.072,0.0925,0.0868,0.098,0.1087,0.1097,0.1112,0.1164,0.1165,0.1148,0.1236,0.1234,0.1233,0.1231,0,0.0099,0.0111,0.0089,0.01,0.0155,0.015,0.0176,0.0256,0.0288,0.0372,0.0407,0.0535,0.0607,0.0758,0.0946,0.0937,0.1184,0.1213,0.13,0.1302,0.1237,0.1228,0.1346,0.1345,0.1345,0.1345,0.1344,0,0.0031,0.0012,0.0038,0.0027,0.0005,0.0063,0.0059,0.0108,0.0181,0.0231,0.0332,0.042,0.0614,0.0778,0.0942,0.1152,0.1182,0.129,0.1341,0.1197,0.1184,0.1328,0.1323,0.1351,0.135,0.1348,0.1347,0,-0.0047,-0.0034,-0.0053,-0.0034,-0.0036,-0.0055,-0.0021,-0.0006,0.0056,0.0128,0.0147,0.0341,0.0552,0.0753,0.1034,0.1145,0.1355,0.1418,0.1231,0.1254,0.1431,0.1419,0.1548,0.1548,0.1548,0.1549,0.1549,0,-0.0079,-0.0103,-0.0112,-0.013,-0.013,-0.0146,-0.0142,-0.0083,-0.0049,0.0108,0.0155,0.0348,0.0529,0.0902,0.1099,0.1354,0.1397,0.1359,0.1308,0.1412,0.145,0.1438,0.1426,0.1201,0.1198,0.1196,0.1194,0,-0.0131,-0.0145,-0.0156,-0.0202,-0.0222,-0.0221,-0.0211,-0.0192,-0.0092,0.0004,0.0201,0.0353,0.0642,0.0857,0.1109,0.1246,0.1297,0.1324,0.1501,0.1154,0.1094,0.1128,0.1127,0.1175,0.1177,0.1178,0.1179,0.118,-0.0163,-0.019,-0.0216,-0.0257,-0.0281,-0.0275,-0.0269,-0.0205,-0.0112,0.0035,0.02,0.0413,0.0507,0.0855,0.1005,0.1164,0.1257,0.1259,0.1262,0.1269,0.1177,0.1118,0.1188,0.119,0.1192,0.1193,0.1195,0,-0.0174,-0.0214,-0.0261,-0.0296,-0.0325,-0.0335,-0.0293,-0.0247,-0.0119,0.0033,0.02,0.0304,0.0503,0.0677,0.0899,0.1031,0.0999,0.1022,0.0937,0.0955,0.0972,0.0861,0.0792,0.0791,0.0791,0.079,0,0,-0.0179,-0.0226,-0.0257,-0.0321,-0.0358,-0.0369,-0.0345,-0.025,-0.0134,0.0029,0.0159,0.0264,0.0489,0.0501,0.0611,0.0744,0.0819,0.0728,0.1033,0.0933,0.0947,0.1085,0.0933,0,0,0,0,0]}],[{"header":{"parameterUnit":"m.s-1","parameterCategory":2,"la1":30.2991,"la2":30.254,"lo1":-89.0895,"lo2":-89.0444,"dy":0.0017,"dx":0.0017,"nx":28,"ny":28,"refTime":"2024-07-15T09:00:00:Z","depth":"4","parameterNumber":2,"parameterNumberName":"U-component_of_CURRENTS"},"data":[0,0,0,0,0,0,0,0,0,0,0,0,0,0,0,0,0,0,0,0,0,0,0,0,0,0,0,0,0,0,0,0,0,0,0,0,0,0,0,0,0,0,0,0,0,0,0,0,0,0,0,0,0,0,0,0,0,0,-0.0836,-0.0838,0,-0.1009,-0.1011,-0.1012,-0.1086,-0.1086,-0.1086,-0.1086,-0.122,-0.1224,-0.1228,0,0,0,0,0,0,0,0,0,0,0,0,0,-0.0746,-0.0746,-0.0835,-0.0838,-0.084,-0.1008,-0.1011,-0.1013,-0.1086,-0.1086,-0.1086,-0.1086,-0.1219,-0.1224,-0.1228,0,0,0,0,0,0,0,0,0,0,0,0,0,-0.0837,-0.0746,-0.0835,-0.0898,-0.0905,-0.1008,-0.1011,-0.1014,-0.1086,-0.1086,-0.1086,-0.1086,-0.1218,-0.1223,-0.1229,-0.127,0,0,-0.1246,-0.1248,0,0,0,0,0,0,0,0,-0.0831,-0.084,-0.0886,-0.0894,-0.0902,-0.1027,-0.1029,-0.1098,-0.1086,-0.1016,-0.1086,-0.1085,-0.1153,-0.1164,-0.1196,-0.1276,-0.1282,-0.1246,-0.125,-0.1252,-0.1254,0,0,0,0,0,0,0,-0.0824,-0.0834,-0.0903,-0.0889,-0.0898,-0.0978,-0.0989,-0.1043,-0.1082,-0.1022,-0.1028,-0.105,-0.1157,-0.119,-0.12,-0.1284,-0.1246,-0.1251,-0.1255,-0.1257,-0.1409,-0.141,0,0,0,0,0,0,-0.0796,-0.0826,-0.0897,-0.0908,-0.0867,-0.0979,-0.0992,-0.0986,-0.1083,-0.1098,-0.105,-0.1053,-0.1181,-0.1193,-0.1205,-0.134,-0.1252,-0.1258,-0.1261,-0.1409,-0.141,-0.141,0,0,0,0,0,0,-0.0793,-0.08,-0.089,-0.0874,-0.0891,-0.098,-0.0974,-0.099,-0.1044,-0.1105,-0.1119,-0.109,-0.1181,-0.1197,-0.1268,-0.1342,-0.126,-0.1265,-0.1408,-0.1409,-0.141,-0.1558,0,0,0,0,0,0,-0.0789,-0.0797,-0.0792,-0.0871,-0.0891,-0.0936,-0.0975,-0.0993,-0.1056,-0.1062,-0.1143,-0.1154,-0.1182,-0.1259,-0.1273,-0.1349,-0.127,-0.1407,-0.1408,-0.141,-0.1553,-0.1564,-0.1574,0,0,0,0,0,-0.0785,-0.0778,-0.079,-0.08,-0.0877,-0.0936,-0.0953,-0.1016,-0.1058,-0.1068,-0.114,-0.1153,-0.1276,-0.1265,-0.1282,-0.136,-0.1407,-0.1408,-0.141,-0.1548,-0.1562,-0.1574,0,0,0,0,0,0,-0.0746,-0.0788,-0.0802,-0.0809,-0.0859,-0.0948,-0.098,-0.1029,-0.1099,-0.1129,-0.1178,-0.1194,-0.1281,-0.128,-0.1267,-0.1395,-0.1337,-0.1342,-0.1437,-0.145,-0.1461,-0.1431,-0.1274,0,0,0,0,0,-0.073,-0.0734,-0.0787,-0.0799,-0.0821,-0.0906,-0.0947,-0.1,-0.1072,-0.1105,-0.1166,-0.1229,-0.1298,-0.134,-0.1381,-0.1465,-0.1428,-0.1513,-0.1524,-0.1534,-0.1513,-0.1528,-0.154,-0.1415,-0.1415,-0.1415,0,0,-0.073,-0.0749,-0.0758,-0.0792,-0.0845,-0.088,-0.093,-0.1004,-0.1048,-0.1109,-0.1195,-0.1272,-0.1321,-0.1417,-0.1455,-0.1434,-0.1548,-0.1535,-0.1545,-0.1518,-0.1531,-0.1543,-0.1554,-0.1416,-0.1416,-0.1416,0,0,-0.0729,-0.0736,-0.0741,-0.076,-0.0831,-0.0891,-0.0911,-0.1011,-0.1061,-0.1151,-0.1221,-0.1329,-0.1413,-0.1488,-0.153,-0.1613,-0.1599,-0.1638,-0.1696,-0.1713,-0.1724,-0.1733,-0.1707,-0.1712,-0.1654,-0.1655,-0.1655,0,-0.072,-0.073,-0.0757,-0.0755,-0.0791,-0.0889,-0.0922,-0.098,-0.1098,-0.1153,-0.1173,-0.1377,-0.1438,-0.1581,-0.1632,-0.1645,-0.1634,-0.1662,-0.1731,-0.1739,-0.1746,-0.1716,-0.1721,-0.1662,-0.1661,-0.166,-0.166,0,-0.0716,-0.0723,-0.0732,-0.0758,-0.0795,-0.0848,-0.0921,-0.0993,-0.1089,-0.116,-0.1313,-0.1429,-0.1557,-0.161,-0.1664,-0.1781,-0.1751,-0.1743,-0.1709,-0.1768,-0.1732,-0.1734,-0.1672,-0.167,-0.1668,-0.1666,0,0,-0.0693,-0.0726,-0.0726,-0.0736,-0.081,-0.0842,-0.0923,-0.1027,-0.109,-0.1226,-0.1318,-0.1513,-0.1624,-0.1677,-0.1792,-0.183,-0.1906,-0.1833,-0.1831,-0.1823,-0.1926,-0.1714,-0.1694,-0.1935,-0.1936,-0.1937,-0.1885,0,-0.0692,-0.0691,-0.0726,-0.076,-0.0773,-0.0863,-0.0926,-0.1026,-0.1125,-0.122,-0.1385,-0.153,-0.1635,-0.1768,-0.1827,-0.1927,-0.1917,-0.1918,-0.1851,-0.1848,-0.1667,-0.1691,-0.194,-0.1886,-0.1886,-0.1886,-0.1886,0,-0.0669,-0.0677,-0.0703,-0.0763,-0.0782,-0.0831,-0.0956,-0.1015,-0.1155,-0.1261,-0.1438,-0.1554,-0.1774,-0.1778,-0.1949,-0.1965,-0.1934,-0.1941,-0.1939,-0.168,-0.1637,-0.1808,-0.1889,-0.1888,-0.1888,-0.1888,-0.1888,0,-0.0627,-0.066,-0.0693,-0.0698,-0.0781,-0.0841,-0.0917,-0.104,-0.1096,-0.1307,-0.1395,-0.1634,-0.1776,-0.1848,-0.1895,-0.1976,-0.191,-0.2021,-0.1752,-0.1737,-0.1884,-0.1874,-0.1968,-0.1968,-0.1968,-0.1968,-0.1969,0,-0.0594,-0.0611,-0.0677,-0.0676,-0.0733,-0.0807,-0.0884,-0.1004,-0.1136,-0.1165,-0.1439,-0.1489,-0.1795,-0.1795,-0.1845,-0.1779,-0.188,-0.1736,-0.1706,-0.1945,-0.1943,-0.1885,-0.1876,-0.1966,-0.1967,-0.1967,-0.1968,0,-0.0534,-0.0576,-0.0592,-0.0677,-0.0704,-0.0738,-0.0843,-0.0885,-0.1072,-0.1113,-0.121,-0.1429,-0.1512,-0.1617,-0.1675,-0.1688,-0.1649,-0.1513,-0.1679,-0.1662,-0.1504,-0.1504,-0.1407,-0.1399,-0.1392,-0.1386,-0.1382,0,-0.0515,-0.0516,-0.0557,-0.0556,-0.0601,-0.0655,-0.0693,-0.0858,-0.0884,-0.0997,-0.0998,-0.1111,-0.1221,-0.117,-0.13,-0.1349,-0.1293,-0.1302,-0.1519,-0.1464,-0.1447,-0.1457,-0.1465,-0.1371,-0.1369,-0.1367,-0.1366,0,-0.0472,-0.0487,-0.0489,-0.0485,-0.0511,-0.0509,-0.0566,-0.0581,-0.0706,-0.0841,-0.0825,-0.089,-0.088,-0.1031,-0.0984,-0.1006,-0.1402,-0.1235,-0.1256,-0.1461,-0.142,-0.1411,-0.1427,-0.1342,-0.1345,-0.1348,-0.1349,0,-0.0436,-0.0422,-0.0426,-0.0419,-0.0412,-0.0385,-0.0421,-0.0443,-0.0497,-0.0638,-0.0544,-0.0653,-0.0754,-0.0819,-0.0757,-0.0809,-0.0931,-0.1032,-0.1067,-0.1094,-0.1026,-0.093,-0.0651,0,0,0,0,0,-0.04,-0.0382,-0.0365,-0.0335,-0.0312,-0.0314,-0.0344,-0.0384,-0.045,-0.0411,-0.0506,-0.0476,-0.0538,-0.0587,-0.0608,-0.0677,-0.0936,-0.0703,-0.1069,-0.1211,-0.1239,-0.1193,0,0,0,0,0,0,-0.0369,-0.0356,-0.0351,-0.0272,-0.0225,-0.0201,-0.0212,-0.0249,-0.0256,-0.0329,-0.0367,-0.0447,-0.0517,-0.0499,-0.0587,-0.0608,-0.0839,-0.0762,-0.0762,-0.1196,-0.1221,-0.1242,-0.1205,0,0,0,0,0]},{"header":{"parameterUnit":"m.s-1","parameterCategory":2,"la1":30.2991,"la2":30.254,"lo1":-89.0895,"lo2":-89.0444,"dy":0.0017,"dx":0.0017,"nx":28,"ny":28,"refTime":"2024-07-15T09:00:00:Z","depth":"4","parameterNumber":3,"parameterNumberName":"V-component_of_CURRENTS"},"data":[0,0,0,0,0,0,0,0,0,0,0,0,0,0,0,0,0,0,0,0,0,0,0,0,0,0,0,0,0,0,0,0,0,0,0,0,0,0,0,0,0,0,0,0,0,0,0,0,0,0,0,0,0,0,0,0,0,0,-0.0433,-0.0433,0,-0.0457,-0.0458,-0.0458,-0.0458,-0.0458,-0.0457,-0.0456,-0.0384,-0.0383,-0.0382,0,0,0,0,0,0,0,0,0,0,0,0,0,-0.037,-0.0372,-0.0433,-0.0433,-0.0433,-0.0457,-0.0458,-0.0459,-0.0459,-0.0458,-0.0456,-0.0455,-0.0385,-0.0383,-0.0382,0,0,0,0,0,0,0,0,0,0,0,0,0,-0.0402,-0.0372,-0.0434,-0.0431,-0.0431,-0.0457,-0.0458,-0.0459,-0.0459,-0.0458,-0.0456,-0.0455,-0.0385,-0.0383,-0.0382,-0.0398,0,0,-0.0377,-0.0376,0,0,0,0,0,0,0,0,-0.04,-0.0405,-0.0432,-0.0431,-0.0431,-0.0448,-0.0409,-0.0432,-0.0459,-0.0455,-0.0456,-0.0454,-0.0393,-0.0391,-0.0409,-0.0394,-0.0391,-0.0377,-0.0376,-0.0375,-0.0374,0,0,0,0,0,0,0,-0.0398,-0.0404,-0.0449,-0.0431,-0.0431,-0.0422,-0.0426,-0.0414,-0.0434,-0.0455,-0.0454,-0.0447,-0.0393,-0.0411,-0.0407,-0.039,-0.0377,-0.0375,-0.0374,-0.0374,-0.0419,-0.0421,0,0,0,0,0,0,-0.0385,-0.0402,-0.0448,-0.0449,-0.0405,-0.0424,-0.0428,-0.0449,-0.0436,-0.0432,-0.0448,-0.0446,-0.0414,-0.0409,-0.0404,-0.0413,-0.0375,-0.0373,-0.0372,-0.0416,-0.0419,-0.0421,0,0,0,0,0,0,-0.0384,-0.039,-0.0447,-0.0419,-0.0425,-0.0426,-0.0449,-0.045,-0.0469,-0.0431,-0.0426,-0.0465,-0.0413,-0.0406,-0.0403,-0.041,-0.0373,-0.0371,-0.0414,-0.0417,-0.042,-0.0436,0,0,0,0,0,0,-0.0383,-0.0391,-0.0408,-0.0419,-0.0426,-0.0463,-0.0449,-0.0451,-0.0463,-0.0462,-0.0443,-0.0436,-0.0411,-0.0406,-0.0401,-0.0407,-0.037,-0.0411,-0.0415,-0.0419,-0.0433,-0.044,-0.0445,0,0,0,0,0,-0.0381,-0.0406,-0.041,-0.0415,-0.0449,-0.0463,-0.0467,-0.0466,-0.0465,-0.0479,-0.0471,-0.0436,-0.0429,-0.0406,-0.04,-0.0406,-0.0409,-0.0414,-0.0419,-0.043,-0.0438,-0.0445,0,0,0,0,0,0,-0.0384,-0.0409,-0.0412,-0.0443,-0.0451,-0.0461,-0.0471,-0.0476,-0.0486,-0.0487,-0.0455,-0.0447,-0.0448,-0.044,-0.0415,-0.0439,-0.0418,-0.0422,-0.0429,-0.0436,-0.0442,-0.0454,-0.0368,0,0,0,0,0,-0.0394,-0.0424,-0.0434,-0.0458,-0.0464,-0.0473,-0.0481,-0.0486,-0.049,-0.0495,-0.0483,-0.0477,-0.0468,-0.046,-0.0455,-0.0463,-0.0429,-0.0471,-0.0477,-0.0482,-0.0494,-0.0477,-0.0481,-0.0437,-0.0437,-0.0437,0,0,-0.0397,-0.0416,-0.0431,-0.0461,-0.047,-0.0489,-0.0477,-0.0497,-0.0522,-0.0483,-0.0514,-0.0494,-0.0478,-0.0485,-0.0486,-0.0473,-0.0469,-0.0488,-0.0492,-0.0501,-0.0482,-0.0486,-0.0489,-0.0441,-0.044,-0.044,0,0,-0.0414,-0.0441,-0.0467,-0.0479,-0.0496,-0.0508,-0.0515,-0.0536,-0.0553,-0.058,-0.0554,-0.0545,-0.0548,-0.0529,-0.0521,-0.0565,-0.0503,-0.0568,-0.06,-0.0584,-0.0586,-0.0588,-0.05,-0.0494,-0.057,-0.057,-0.057,0,-0.0412,-0.0456,-0.0473,-0.0495,-0.0513,-0.0518,-0.0548,-0.0568,-0.0588,-0.0604,-0.0595,-0.0598,-0.0572,-0.0567,-0.058,-0.0574,-0.0535,-0.0561,-0.0587,-0.0589,-0.059,-0.05,-0.0493,-0.0572,-0.0572,-0.0571,-0.0571,0,-0.0439,-0.0478,-0.0492,-0.0532,-0.0557,-0.0582,-0.0607,-0.0635,-0.0657,-0.067,-0.0686,-0.066,-0.0654,-0.0647,-0.0622,-0.0623,-0.0577,-0.059,-0.0556,-0.0595,-0.0498,-0.049,-0.0574,-0.0573,-0.0573,-0.0572,0,0,-0.043,-0.0498,-0.0505,-0.0534,-0.0584,-0.0604,-0.0655,-0.0697,-0.0724,-0.074,-0.0778,-0.075,-0.0727,-0.0718,-0.0679,-0.0665,-0.0613,-0.0635,-0.0633,-0.0524,-0.0522,-0.0473,-0.0459,-0.0629,-0.0629,-0.063,-0.0429,0,-0.0446,-0.0497,-0.054,-0.0597,-0.0625,-0.0665,-0.0715,-0.0754,-0.0781,-0.0818,-0.0801,-0.0813,-0.0756,-0.0747,-0.0721,-0.0642,-0.0604,-0.0663,-0.0522,-0.0517,-0.0451,-0.0454,-0.063,-0.0423,-0.0421,-0.042,-0.0419,0,-0.0461,-0.0497,-0.0559,-0.064,-0.0658,-0.0701,-0.0776,-0.0821,-0.0868,-0.0889,-0.0887,-0.0875,-0.0826,-0.0811,-0.0664,-0.07,-0.0619,-0.0562,-0.0554,-0.0506,-0.0457,-0.0393,-0.0404,-0.0406,-0.0407,-0.0408,-0.0408,0,-0.0442,-0.0515,-0.0571,-0.0593,-0.068,-0.0729,-0.0781,-0.0842,-0.0883,-0.0931,-0.0954,-0.0901,-0.0865,-0.078,-0.0641,-0.0649,-0.0501,-0.049,-0.0363,-0.0354,-0.0446,-0.0447,-0.0428,-0.0428,-0.0429,-0.043,-0.043,0,-0.0448,-0.0491,-0.0566,-0.0591,-0.0666,-0.0733,-0.081,-0.0855,-0.0923,-0.0942,-0.0977,-0.0951,-0.0866,-0.0774,-0.0656,-0.0461,-0.049,-0.0359,-0.0316,-0.0451,-0.0456,-0.0436,-0.0439,-0.0422,-0.0424,-0.0425,-0.0426,0,-0.0436,-0.0481,-0.0544,-0.0631,-0.0663,-0.0721,-0.0828,-0.0866,-0.0935,-0.0962,-0.098,-0.0963,-0.0817,-0.0726,-0.0558,-0.0449,-0.0304,-0.0248,-0.0355,-0.0322,-0.0148,-0.0155,-0.0039,-0.0036,-0.0033,-0.0031,-0.0029,0,-0.0438,-0.0465,-0.0557,-0.0593,-0.0644,-0.0725,-0.0778,-0.0865,-0.088,-0.0923,-0.0912,-0.0852,-0.0804,-0.0529,-0.0431,-0.0216,-0.0211,-0.0113,-0.0172,-0.0146,-0.0115,-0.0127,-0.0137,-0.0025,-0.0024,-0.0024,-0.0023,0,-0.0436,-0.0472,-0.0516,-0.058,-0.0642,-0.0706,-0.0766,-0.0779,-0.0838,-0.0893,-0.0826,-0.0751,-0.0608,-0.0451,-0.0327,-0.0174,-0.0163,-0.0085,-0.0089,-0.0144,-0.0128,-0.0103,-0.0116,-0.0014,-0.0016,-0.0016,-0.0017,0,-0.0429,-0.0457,-0.0506,-0.0562,-0.063,-0.067,-0.0712,-0.0713,-0.0749,-0.0781,-0.0718,-0.0658,-0.0607,-0.0423,-0.0281,-0.0162,-0.0113,-0.0059,-0.0063,-0.0072,-0.0172,-0.0162,-0.0015,0,0,0,0,0,-0.0419,-0.0438,-0.0482,-0.0543,-0.0602,-0.0642,-0.0692,-0.0719,-0.0746,-0.0684,-0.0712,-0.0584,-0.0412,-0.0355,-0.0217,-0.0217,-0.0091,-0.0046,-0.0031,0.0035,0.0025,-0.0089,0,0,0,0,0,0,-0.0414,-0.0449,-0.0467,-0.0506,-0.0539,-0.0601,-0.0636,-0.0655,-0.0615,-0.0632,-0.0549,-0.0521,-0.0367,-0.0493,-0.0209,-0.0176,-0.0135,0.0017,0.0022,0.0041,0.0031,0.0023,-0.0097,0,0,0,0,0]}]]